Regional Weather Roundup
Issued by NWS

Home | Current Version | Previous Version | Graphics & Text | Print | Product List | Glossary On
Versions: 1 2 3 4 5 6 7 8 9 10 11 12 13 14 15 16 17 18 19 20 21 22 23 24 25 26 27 28 29 30 31 32 33 34 35 36 37 38 39 40 41 42 43 44 45 46 47 48 49 50
000
ASUS43 KFSD 271402
RWRSD

WEATHER ROUNDUP FOR SOUTH DAKOTA
NATIONAL WEATHER SERVICE SIOUX FALLS SD
900 AM CDT SAT MAY 27 2017

NOTE: "FAIR" INDICATES FEW OR NO CLOUDS BELOW 12,000 FEET WITH NO
SIGNIFICANT WEATHER AND/OR OBSTRUCTIONS TO VISIBILITY.


SDZ001>005-009-010-012>017-271500-
NORTHWEST AND NORTH CENTRAL SOUTH DAKOTA

CITY           SKY/WX    TMP DP  RH WIND       PRES   REMARKS
BUFFALO          N/A     56  43  61 W12       29.92R
FAITH            N/A     57  42  57 NW14      29.96R
MOBRIDGE       CLOUDY    60  44  55 W9        29.90R
$$

SDZ012>016-024>037-041>051-057-063-072>074-271500-
SOUTHWEST AND SOUTH CENTRAL SOUTH DAKOTA

CITY           SKY/WX    TMP DP  RH WIND       PRES   REMARKS
RAPID CTY ARPT SUNNY     56  46  69 W7        30.01R
PIERRE         LGT RAIN  54  51  90 SE6       29.96S
CUSTER         CLOUDY    49  38  65 N6        30.05R
ELLSWORTH AFB  SUNNY     56  46  70 W9        30.00S
PHILIP         PTSUNNY   54  52  93 W7        29.98S
PINE RIDGE     CLOUDY    52  51  97 W7        30.03R
WINNER         LGT RAIN  57  51  80 NW12      29.98R
$$

SDZ004>011-016>023-039-040-271500-
NORTHEAST SOUTH DAKOTA

CITY           SKY/WX    TMP DP  RH WIND       PRES   REMARKS
ABERDEEN       CLOUDY    65  40  39 W13       29.90R
WATERTOWN      CLOUDY    58  50  75 S6        29.90F
BROOKINGS      CLOUDY    59  50  72 S7        29.93S
SISSETON         N/A     67  48  50 W12       29.86S
$$

SDZ017-020-022-023-036>040-048>070-271500-
SOUTHEAST SOUTH DAKOTA

CITY           SKY/WX    TMP DP  RH WIND       PRES   REMARKS
SIOUX FALLS    LGT RAIN  57  54  89 SW3       29.93F
HURON          PTSUNNY   62  49  62 W7        29.92R
CHAMBERLAIN    CLOUDY    60  51  71 W6        29.96S
MITCHELL       CLOUDY    59  52  77 S6        29.94R
YANKTON        CLOUDY    55  53  93 N3        29.95R
$$

ABBREVIATIONS USED IN REMARKS
   TC - TEMPERATURE IN CELSIUS
  WCI - WIND CHILL INDEX
   HX - HEAT INDEX
  VSB - VISIBILITY




USA.gov is the U.S. government's official web portal to all federal, state and local government web resources and services.